User: anonymous   Login
Location: Alta
(39.2070°N, 120.8111°W)
Time: 12:22:04
(UTC+00:00)
Language:

COSMOS 1408 DEB - Orbit

View from above orbital plane
View from above orbital plane
View from above satellite
View from above satellite

Ground track
Ground track

The orbit data is extracted from the following two-line orbital elements,

1 51562U 82092BMP 23342.08007399  .00203364  00000-0  18798-2 0  9993
2 51562  82.5826 107.0950 0047261 291.7197  67.9034 15.65474536104718
Epoch (UTC): 08 December 2023 01:55:18
Eccentricity: 0.0047261
inclination: 82.5826°
perigee height: 340 km
apogee height: 404 km
right ascension of ascending node: 107.0950°
argument of perigee: 291.7197°
revolutions per day: 15.65474536
mean anomaly at epoch: 67.9034°
orbit number at epoch: 10471

The dashed part of the orbit path shows where the satellite is in the earth's shadow,  

DLR